{"data":{"norad_id":68968,"epoch":"2026-09-20T02:13:35.447232Z","epoch_age_seconds":54128,"freshness":"FRESH","line1":"1 68968U 26099T   26263.09277138  .00016000  00000+0  48365-3 0  9994","line2":"2 68968  53.1589  77.5602 0000599 108.7047 251.4020 15.34400269 21840","mean_motion":15.34400269,"eccentricity":5.99e-5,"inclination_deg":53.1589,"raan_deg":77.5602,"arg_perigee_deg":108.7047,"mean_anomaly_deg":251.402,"bstar":0.00048365,"rev_number":2184,"period_min":93.847741628622,"perigee_km":462.29267440004,"apogee_km":463.11220696503,"semimajor_km":6840.8394406825,"source":"CELESTRAK","updated_at":"2026-09-20T09:00:44.055130Z"}}